DW7875 Weather Reports


Display with metric or nautical units.
time (UTC)temp
F
wind
direction
speed
MPH
gust
MPH
rain 1hr
in
rain 24hr
in
rain mn
in
humidity
%
barometer
mb
20260504184539 73 145 1.0 4.0 0.00 0.00 0.00 44 1011.3
20260504183036 71 120 0.0 4.0 0.00 0.00 0.00 50 1011.5
20260504181532 70 146 1.0 4.0 0.00 0.00 0.00 48 1012.0
20260504180030 70 139 1.0 5.0 0.00 0.00 0.00 47 1012.2
20260504174527 69 138 1.0 5.0 0.00 0.00 0.00 51 1012.3
20260504173025 69 170 1.0 5.0 0.00 0.00 0.00 48 1012.6
20260504171525 68 143 1.0 5.0 0.00 0.00 0.00 48 1012.7
20260504081512 53 141 2.0 5.0 0.00 0.00 0.00 49 1015.3
20260504044540 45 250 0.0 0.0 0.00 0.00 0.00 57 1015.5
20260504043049 46 250 0.0 0.0 0.00 0.00 0.00 56 1015.6
20260504041536 46 250 0.0 2.0 0.00 0.00 0.00 55 1015.6
20260504040033 46 250 0.0 0.0 0.00 0.00 0.00 55 1015.5
20260504034539 46 250 0.0 0.0 0.00 0.00 0.00 54 1015.4
20260504033032 46 250 0.0 2.0 0.00 0.00 0.00 53 1015.4
20260504031535 46 250 0.0 1.0 0.00 0.00 0.00 54 1015.2
20260504030036 46 250 0.0 1.0 0.00 0.00 0.00 54 1015.1
20260504024535 46 250 0.0 0.0 0.00 0.00 0.00 52 1015.1
20260504023030 46 250 0.0 1.0 0.00 0.00 0.00 52 1015.1
20260504021540 47 250 0.0 0.0 0.00 0.00 0.00 52 1015.1
20260504020036 47 250 0.0 0.0 0.00 0.00 0.00 50 1014.9
20260504014529 48 250 0.0 0.0 0.00 0.00 0.00 48 1015.0
20260504013034 48 250 0.0 0.0 0.00 0.00 0.00 49 1014.9
20260504011528 49 250 0.0 0.0 0.00 0.00 0.00 46 1014.6
20260504010027 50 250 0.0 1.0 0.00 0.00 0.00 46 1014.6
20260504004538 51 250 0.0 0.0 0.00 0.00 0.00 43 1014.6
20260504003026 52 250 0.0 0.0 0.00 0.00 0.00 42 1014.4
20260504001533 54 250 0.0 0.0 0.00 0.00 0.00 39 1014.3
20260504000025 56 250 0.0 2.0 0.00 0.00 0.00 38 1014.3
20260503234527 57 250 0.0 1.0 0.00 0.00 0.00 36 1013.9
20260503233024 58 250 0.0 1.0 0.00 0.00 0.00 31 1013.8
20260503231525 59 250 0.0 2.0 0.00 0.00 0.00 26 1013.8
20260503230026 60 251 0.0 3.0 0.00 0.00 0.00 25 1013.8
20260503224523 61 233 1.0 5.0 0.00 0.00 0.00 24 1013.7
20260503223022 61 354 1.0 4.0 0.00 0.00 0.00 23 1013.7
20260503221522 62 1 1.0 3.0 0.00 0.00 0.00 25 1013.9
20260503220030 62 34 2.0 6.0 0.00 0.00 0.00 22 1013.9
20260503214532 62 30 2.0 5.0 0.00 0.00 0.00 23 1013.9
20260503213030 63 252 1.0 6.0 0.00 0.00 0.00 23 1013.8
20260503211520 64 308 2.0 8.0 0.00 0.00 0.00 24 1013.8
20260503210020 63 265 2.0 6.0 0.00 0.00 0.00 25 1013.7
20260503204525 63 299 3.0 9.0 0.00 0.00 0.00 24 1013.9
20260503203017 63 300 3.0 8.0 0.00 0.00 0.00 25 1014.2
20260503201516 64 326 3.0 9.0 0.00 0.00 0.00 21 1014.2
20260503200015 64 276 2.0 8.0 0.00 0.00 0.00 24 1014.6
20260503194514 64 356 2.0 7.0 0.00 0.00 0.00 25 1014.6
20260503193012 64 319 3.0 8.0 0.00 0.00 0.00 25 1014.7
20260503191512 63 321 3.0 11.0 0.00 0.00 0.00 26 1015.0
20260503190016 64 273 4.0 10.0 0.00 0.00 0.00 24 1015.2